SQP1233 LUKK-LHBP

Flight info

Callsign SQP1233
Flight time 1h 12m
Altitude 36000
Route NUNTA DCT OBARA DCT BUDOP DCT KEZAL
Aircraft B738/M-SDE2E3FGHIRWXY/LB1

Departure

Time 2026-05-04 18:35
Airport Chişinău International Airport (LUKK)

Arrival

Time 2026-05-04 19:47
Airport Budapest Liszt Ferenc International Airport (LHBP)
Time Latitude Longitude Altitude Speed Heading
2026-05-04 18:17 46.93202 28.93534 405 ft 0 kts 277°
2026-05-04 18:30 46.93203 28.93532 408 ft 1 kts 277°
2026-05-04 18:31 46.93205 28.93512 408 ft 4 kts 277°
2026-05-04 18:31 46.93207 28.93460 408 ft 5 kts 257°
2026-05-04 18:31 46.93177 28.93435 409 ft 5 kts 208°
2026-05-04 18:31 46.93157 28.93372 410 ft 10 kts 272°
2026-05-04 18:32 46.93168 28.93225 409 ft 18 kts 276°
2026-05-04 18:32 46.93190 28.92987 408 ft 29 kts 277°
2026-05-04 18:32 46.93217 28.92657 406 ft 34 kts 277°
2026-05-04 18:32 46.93245 28.92323 406 ft 32 kts 276°
2026-05-04 18:33 46.93260 28.92064 406 ft 20 kts 252°
2026-05-04 18:33 46.93146 28.92000 407 ft 18 kts 193°
2026-05-04 18:33 46.93026 28.91989 407 ft 17 kts 178°
2026-05-04 18:33 46.92910 28.91994 407 ft 16 kts 178°
2026-05-04 18:34 46.92800 28.91999 408 ft 15 kts 178°
2026-05-04 18:34 46.92754 28.92062 408 ft 11 kts 77°
2026-05-04 18:34 46.92761 28.92236 407 ft 28 kts 88°
2026-05-04 18:34 46.92775 28.92870 407 ft 96 kts 88°
2026-05-04 18:35 46.92802 28.94147 408 ft 153 kts 87°
2026-05-04 18:35 46.92834 28.95823 828 ft 165 kts 89°
2026-05-04 18:35 46.92868 28.97495 1624 ft 164 kts 88°
2026-05-04 18:35 46.92904 28.99254 2072 ft 187 kts 87°
2026-05-04 18:36 46.92946 29.01246 2525 ft 200 kts 86°
2026-05-04 18:36 46.93003 29.03334 2977 ft 213 kts 85°
2026-05-04 18:36 46.93092 29.05596 3271 ft 234 kts 83°
2026-05-04 18:36 46.93582 29.08019 3461 ft 260 kts 57°
2026-05-04 18:37 46.94884 29.09774 4431 ft 254 kts 27°
2026-05-04 18:37 46.96570 29.10415 5299 ft 259 kts
2026-05-04 18:37 46.98347 29.09830 6089 ft 270 kts 337°
2026-05-04 18:37 46.99777 29.08172 6711 ft 285 kts 312°
2026-05-04 18:38 47.00667 29.05584 7734 ft 286 kts 291°
2026-05-04 18:38 47.01003 29.02773 8818 ft 281 kts 278°
2026-05-04 18:38 47.01105 28.99934 9703 ft 280 kts 282°
2026-05-04 18:38 47.01340 28.97023 10113 ft 294 kts 284°
2026-05-04 18:39 47.01633 28.93963 10355 ft 316 kts 284°
2026-05-04 18:39 47.01951 28.90665 10536 ft 338 kts 283°
2026-05-04 18:39 47.02283 28.87118 10696 ft 360 kts 282°
2026-05-04 18:39 47.02619 28.83382 10853 ft 380 kts 282°
2026-05-04 18:40 47.02962 28.79445 11009 ft 397 kts 281°
2026-05-04 18:40 47.03306 28.75370 11420 ft 406 kts 281°
2026-05-04 18:40 47.03648 28.71231 12001 ft 409 kts 281°
2026-05-04 18:40 47.03987 28.67092 12626 ft 412 kts 281°
2026-05-04 18:41 47.04332 28.62882 13183 ft 417 kts 281°
2026-05-04 18:41 47.04675 28.58690 13766 ft 421 kts 280°
2026-05-04 18:41 47.05025 28.54402 14328 ft 425 kts 280°
2026-05-04 18:41 47.05377 28.50085 14914 ft 428 kts 280°
2026-05-04 18:42 47.05729 28.45735 15529 ft 431 kts 280°
2026-05-04 18:42 47.06083 28.41349 16134 ft 434 kts 280°
2026-05-04 18:42 47.06438 28.36928 16707 ft 437 kts 279°
2026-05-04 18:42 47.06794 28.32478 17255 ft 441 kts 279°
2026-05-04 18:43 47.07151 28.27992 17801 ft 444 kts 279°
2026-05-04 18:43 47.07510 28.23463 18335 ft 448 kts 279°
2026-05-04 18:43 47.07747 28.20451 18664 ft 449 kts 279°
2026-05-04 18:43 47.08104 28.15890 19186 ft 451 kts 279°
2026-05-04 18:44 47.08580 28.09795 19833 ft 454 kts 279°
2026-05-04 18:44 47.08701 28.08239 19990 ft 455 kts 279°
2026-05-04 18:44 47.09176 28.02093 20613 ft 459 kts 279°
2026-05-04 18:44 47.09535 27.97427 21064 ft 461 kts 279°
2026-05-04 18:45 47.09894 27.92737 21510 ft 464 kts 278°
2026-05-04 18:45 47.10252 27.88025 21931 ft 466 kts 278°
2026-05-04 18:45 47.10547 27.83269 22352 ft 470 kts 275°
2026-05-04 18:45 47.10660 27.78468 22762 ft 472 kts 273°
2026-05-04 18:46 47.10678 27.73622 23213 ft 474 kts 272°
2026-05-04 18:46 47.10662 27.68767 23596 ft 477 kts 271°
2026-05-04 18:46 47.10644 27.63890 23903 ft 479 kts 271°
2026-05-04 18:46 47.10636 27.58980 24224 ft 481 kts 272°
2026-05-04 18:47 47.10641 27.54061 24550 ft 483 kts 272°
2026-05-04 18:47 47.10656 27.49118 24876 ft 485 kts 272°
2026-05-04 18:47 47.10676 27.44156 25171 ft 487 kts 272°
2026-05-04 18:47 47.10698 27.39246 25446 ft 489 kts 272°
2026-05-04 18:48 47.10719 27.34252 25739 ft 490 kts 272°
2026-05-04 18:48 47.10739 27.29242 26008 ft 491 kts 272°
2026-05-04 18:48 47.10756 27.24221 26274 ft 492 kts 272°
2026-05-04 18:48 47.10770 27.19181 26577 ft 491 kts 272°
2026-05-04 18:49 47.10781 27.14167 26938 ft 490 kts 272°
2026-05-04 18:49 47.10790 27.09167 27326 ft 488 kts 272°
2026-05-04 18:49 47.10796 27.04201 27695 ft 487 kts 272°
2026-05-04 18:49 47.10801 26.99228 28035 ft 486 kts 272°
2026-05-04 18:50 47.10803 26.94265 28375 ft 486 kts 272°
2026-05-04 18:50 47.10803 26.89315 28721 ft 484 kts 272°
2026-05-04 18:50 47.10801 26.84427 29099 ft 483 kts 272°
2026-05-04 18:50 47.10797 26.79514 29488 ft 481 kts 271°
2026-05-04 18:51 47.10791 26.74591 29856 ft 481 kts 271°
2026-05-04 18:51 47.10783 26.69683 30188 ft 480 kts 271°
2026-05-04 18:51 47.10773 26.64783 30493 ft 479 kts 271°
2026-05-04 18:51 47.10761 26.59907 30814 ft 477 kts 271°
2026-05-04 18:52 47.10746 26.55046 31125 ft 476 kts 271°
2026-05-04 18:52 47.10730 26.50182 31420 ft 475 kts 271°
2026-05-04 18:52 47.10763 26.45336 31719 ft 474 kts 273°
2026-05-04 18:52 47.10899 26.40503 32032 ft 472 kts 275°
2026-05-04 18:53 47.11079 26.35767 32331 ft 471 kts 275°
2026-05-04 18:53 47.11274 26.30976 32598 ft 470 kts 275°
2026-05-04 18:53 47.11464 26.26179 32861 ft 470 kts 275°
2026-05-04 18:53 47.11642 26.21395 33142 ft 469 kts 275°
2026-05-04 18:54 47.11809 26.16592 33422 ft 468 kts 275°
2026-05-04 18:54 47.11967 26.11818 33723 ft 467 kts 274°
2026-05-04 18:54 47.12116 26.07097 33981 ft 467 kts 274°
2026-05-04 18:54 47.12262 26.02343 34215 ft 467 kts 274°
2026-05-04 18:55 47.12406 25.97566 34440 ft 466 kts 274°
2026-05-04 18:55 47.12688 25.88036 34771 ft 468 kts 274°
2026-05-04 18:55 47.12827 25.83256 34996 ft 467 kts 274°
2026-05-04 18:56 47.12964 25.78491 35242 ft 466 kts 274°
2026-05-04 18:56 47.13098 25.73741 35451 ft 466 kts 274°
2026-05-04 18:56 47.13230 25.68980 35643 ft 466 kts 274°
2026-05-04 18:56 47.13359 25.64287 35845 ft 465 kts 274°
2026-05-04 18:57 47.13488 25.59535 36052 ft 465 kts 274°
2026-05-04 18:57 47.13615 25.54783 36077 ft 467 kts 274°
2026-05-04 18:57 47.13863 25.45251 36087 ft 464 kts 274°
2026-05-04 18:58 47.14100 25.35806 36091 ft 461 kts 274°
2026-05-04 18:58 47.14329 25.26406 36101 ft 459 kts 274°
2026-05-04 18:59 47.14550 25.17029 36100 ft 459 kts 274°
2026-05-04 18:59 47.14762 25.07709 36096 ft 459 kts 274°
2026-05-04 19:00 47.14968 24.98331 36089 ft 460 kts 274°
2026-05-04 19:00 47.15167 24.88926 36098 ft 460 kts 274°
2026-05-04 19:01 47.15357 24.79527 36090 ft 461 kts 274°
2026-05-04 19:01 47.15541 24.70100 36087 ft 462 kts 274°
2026-05-04 19:02 47.15715 24.60721 36061 ft 462 kts 274°
2026-05-04 19:02 47.15884 24.51277 36075 ft 463 kts 274°
2026-05-04 19:03 47.16044 24.41826 36074 ft 463 kts 274°
2026-05-04 19:03 47.16198 24.32349 36075 ft 463 kts 273°
2026-05-04 19:04 47.16343 24.22861 36076 ft 463 kts 273°
2026-05-04 19:04 47.16481 24.13395 36076 ft 463 kts 273°
2026-05-04 19:05 47.16610 24.03969 36073 ft 463 kts 273°
2026-05-04 19:05 47.16731 23.94508 36074 ft 463 kts 273°
2026-05-04 19:06 47.16845 23.85048 36074 ft 463 kts 273°
2026-05-04 19:06 47.16952 23.75581 36077 ft 462 kts 273°
2026-05-04 19:07 47.17050 23.66131 36077 ft 462 kts 273°
2026-05-04 19:07 47.17141 23.56684 36086 ft 462 kts 273°
2026-05-04 19:08 47.17223 23.47284 36081 ft 462 kts 273°
2026-05-04 19:08 47.17298 23.37840 36084 ft 462 kts 272°
2026-05-04 19:09 47.17365 23.28382 36078 ft 462 kts 272°
2026-05-04 19:09 47.17424 23.18997 36089 ft 462 kts 272°
2026-05-04 19:10 47.17476 23.09540 36085 ft 462 kts 272°
2026-05-04 19:10 47.17520 23.00092 36089 ft 462 kts 272°
2026-05-04 19:11 47.17556 22.90662 36091 ft 462 kts 272°
2026-05-04 19:11 47.17585 22.81227 36084 ft 462 kts 273°
2026-05-04 19:12 47.17613 22.67122 36089 ft 462 kts 272°
2026-05-04 19:13 47.17623 22.57660 35874 ft 466 kts 272°
2026-05-04 19:13 47.17624 22.52900 35624 ft 464 kts 272°
2026-05-04 19:13 47.17624 22.48168 35365 ft 463 kts 273°
2026-05-04 19:13 47.17621 22.43426 35123 ft 463 kts 273°
2026-05-04 19:14 47.17617 22.38678 34866 ft 464 kts 273°
2026-05-04 19:14 47.17611 22.33931 34623 ft 462 kts 273°
2026-05-04 19:14 47.17601 22.29307 34372 ft 455 kts 273°
2026-05-04 19:14 47.17589 22.24685 34122 ft 449 kts 274°
2026-05-04 19:15 47.17577 22.20099 33854 ft 447 kts 274°
2026-05-04 19:15 47.17564 22.15524 33582 ft 445 kts 273°
2026-05-04 19:15 47.17550 22.11027 33313 ft 444 kts 273°
2026-05-04 19:15 47.17534 22.06440 33038 ft 443 kts 273°
2026-05-04 19:16 47.17517 22.01980 32777 ft 441 kts 273°
2026-05-04 19:16 47.17497 21.97470 32513 ft 440 kts 273°
2026-05-04 19:16 47.17475 21.92985 32239 ft 438 kts 273°
2026-05-04 19:16 47.17451 21.88507 31976 ft 437 kts 273°
2026-05-04 19:17 47.17426 21.84057 31724 ft 435 kts 273°
2026-05-04 19:17 47.17399 21.79612 31468 ft 433 kts 273°
2026-05-04 19:17 47.17371 21.75196 31217 ft 431 kts 273°
2026-05-04 19:17 47.17341 21.70783 30968 ft 430 kts 272°
2026-05-04 19:18 47.17309 21.66464 30720 ft 428 kts 272°
2026-05-04 19:18 47.17276 21.62103 30475 ft 426 kts 272°
2026-05-04 19:18 47.17242 21.57765 30231 ft 424 kts 272°
2026-05-04 19:18 47.17206 21.53437 30097 ft 421 kts 272°
2026-05-04 19:19 47.17169 21.49150 30050 ft 420 kts 272°
2026-05-04 19:19 47.17090 21.40560 30064 ft 419 kts 272°
2026-05-04 19:20 47.17005 21.31996 30064 ft 420 kts 272°
2026-05-04 19:20 47.16913 21.23442 30052 ft 420 kts 272°
2026-05-04 19:21 47.17499 21.15094 29517 ft 399 kts 290°
2026-05-04 19:21 47.18442 21.11286 28636 ft 396 kts 293°
2026-05-04 19:21 47.19425 21.07498 27680 ft 397 kts 293°
2026-05-04 19:21 47.20409 21.03695 26885 ft 395 kts 292°
2026-05-04 19:22 47.21370 20.99940 26193 ft 390 kts 292°
2026-05-04 19:22 47.22312 20.96221 25528 ft 386 kts 292°
2026-05-04 19:22 47.23243 20.92515 24836 ft 383 kts 291°
2026-05-04 19:22 47.24158 20.88852 24165 ft 380 kts 291°
2026-05-04 19:23 47.25063 20.85212 23745 ft 377 kts 291°
2026-05-04 19:23 47.25964 20.81576 23277 ft 377 kts 291°
2026-05-04 19:23 47.26858 20.77962 22870 ft 374 kts 291°
2026-05-04 19:23 47.27733 20.74419 22484 ft 372 kts 291°
2026-05-04 19:24 47.28612 20.70852 22111 ft 369 kts 291°
2026-05-04 19:24 47.29484 20.67305 21744 ft 367 kts 291°
2026-05-04 19:24 47.30352 20.63773 21379 ft 365 kts 291°
2026-05-04 19:24 47.31211 20.60269 21017 ft 363 kts 291°
2026-05-04 19:25 47.32068 20.56772 20661 ft 361 kts 291°
2026-05-04 19:25 47.32917 20.53298 20306 ft 360 kts 291°
2026-05-04 19:25 47.33763 20.49834 19952 ft 358 kts 291°
2026-05-04 19:25 47.34604 20.46383 19596 ft 357 kts 290°
2026-05-04 19:26 47.35443 20.42936 19236 ft 356 kts 290°
2026-05-04 19:26 47.36268 20.39540 18892 ft 354 kts 290°
2026-05-04 19:26 47.37096 20.36128 18544 ft 351 kts 290°
2026-05-04 19:26 47.37916 20.32745 18213 ft 348 kts 290°
2026-05-04 19:27 47.38722 20.29409 17901 ft 343 kts 290°
2026-05-04 19:27 47.39522 20.26098 17542 ft 340 kts 290°
2026-05-04 19:27 47.40302 20.22863 17202 ft 337 kts 290°
2026-05-04 19:27 47.41083 20.19620 16863 ft 334 kts 290°
2026-05-04 19:28 47.41857 20.16404 16527 ft 331 kts 289°
2026-05-04 19:28 47.42625 20.13204 16194 ft 329 kts 289°
2026-05-04 19:28 47.43386 20.10033 15869 ft 326 kts 289°
2026-05-04 19:28 47.44138 20.06888 15534 ft 324 kts 289°
2026-05-04 19:29 47.44888 20.03752 15211 ft 322 kts 289°
2026-05-04 19:29 47.45634 20.00629 14878 ft 321 kts 289°
2026-05-04 19:29 47.46371 19.97538 14554 ft 319 kts 289°
2026-05-04 19:29 47.47105 19.94453 14237 ft 317 kts 288°
2026-05-04 19:30 47.47838 19.91372 13907 ft 316 kts 288°
2026-05-04 19:30 47.48564 19.88312 13557 ft 315 kts 288°
2026-05-04 19:30 47.49046 19.86282 13324 ft 314 kts 288°
2026-05-04 19:30 47.49998 19.82261 12879 ft 311 kts 288°
2026-05-04 19:31 47.50712 19.79237 12546 ft 310 kts 288°
2026-05-04 19:31 47.51420 19.76241 12230 ft 308 kts 288°
2026-05-04 19:31 47.51886 19.74263 12022 ft 306 kts 288°
2026-05-04 19:31 47.52821 19.70293 11588 ft 304 kts 288°
2026-05-04 19:32 47.53281 19.68339 11401 ft 303 kts 288°
2026-05-04 19:32 47.53972 19.65397 11080 ft 302 kts 287°
2026-05-04 19:32 47.54662 19.62453 10778 ft 301 kts 287°
2026-05-04 19:32 47.55345 19.59537 10458 ft 299 kts 287°
2026-05-04 19:33 47.56025 19.56633 10224 ft 295 kts 287°
2026-05-04 19:33 47.56688 19.53800 10090 ft 288 kts 287°
2026-05-04 19:33 47.57335 19.51028 9802 ft 287 kts 287°
2026-05-04 19:33 47.57983 19.48243 9502 ft 285 kts 287°
2026-05-04 19:34 47.58629 19.45469 9213 ft 283 kts 287°
2026-05-04 19:34 47.59266 19.42725 8928 ft 281 kts 287°
2026-05-04 19:34 47.59904 19.39979 8631 ft 280 kts 287°
2026-05-04 19:34 47.60530 19.37278 8341 ft 279 kts 287°
2026-05-04 19:35 47.61160 19.34554 8047 ft 278 kts 287°
2026-05-04 19:35 47.61786 19.31850 7762 ft 277 kts 287°
2026-05-04 19:35 47.62409 19.29150 7482 ft 276 kts 287°
2026-05-04 19:35 47.63030 19.26461 7204 ft 274 kts 287°
2026-05-04 19:36 47.63645 19.23791 6932 ft 273 kts 287°
2026-05-04 19:36 47.64257 19.21128 6659 ft 272 kts 287°
2026-05-04 19:36 47.64861 19.18502 6384 ft 272 kts 287°
2026-05-04 19:36 47.65477 19.15821 6075 ft 271 kts 287°
2026-05-04 19:37 47.66076 19.13212 5862 ft 267 kts 286°
2026-05-04 19:37 47.66672 19.10616 5740 ft 259 kts 286°
2026-05-04 19:37 47.67237 19.08146 5619 ft 252 kts 286°
2026-05-04 19:37 47.67827 19.05737 5510 ft 246 kts 294°
2026-05-04 19:38 47.68805 19.03690 5521 ft 242 kts 306°
2026-05-04 19:38 47.69873 19.01761 5512 ft 241 kts 307°
2026-05-04 19:38 47.70987 18.99841 5291 ft 251 kts 312°
2026-05-04 19:38 47.72382 18.98256 5078 ft 251 kts 317°
2026-05-04 19:39 47.73385 18.96263 5002 ft 236 kts 285°
2026-05-04 19:39 47.73519 18.93913 4984 ft 227 kts 254°
2026-05-04 19:39 47.72807 18.91950 5010 ft 219 kts 222°
2026-05-04 19:39 47.71459 18.90895 5014 ft 224 kts 192°
2026-05-04 19:40 47.69897 18.90602 4992 ft 227 kts 186°
2026-05-04 19:40 47.68327 18.90408 4980 ft 226 kts 186°
2026-05-04 19:40 47.66768 18.90227 4995 ft 224 kts 186°
2026-05-04 19:40 47.65216 18.90052 4983 ft 223 kts 186°
2026-05-04 19:41 47.63683 18.90218 4972 ft 224 kts 159°
2026-05-04 19:41 47.62840 18.91080 4992 ft 228 kts 133°
2026-05-04 19:41 47.62205 18.92595 5017 ft 236 kts 120°
2026-05-04 19:41 47.61387 18.94683 4999 ft 238 kts 127°
2026-05-04 19:42 47.60425 18.96697 4898 ft 242 kts 131°
2026-05-04 19:42 47.59346 18.98632 4596 ft 241 kts 135°
2026-05-04 19:42 47.58234 19.00457 4274 ft 236 kts 136°
2026-05-04 19:42 47.57137 19.02223 3962 ft 229 kts 136°
2026-05-04 19:43 47.56077 19.03932 3694 ft 220 kts 136°
2026-05-04 19:43 47.55069 19.05549 3408 ft 209 kts 137°
2026-05-04 19:43 47.54112 19.07099 3197 ft 197 kts 137°
2026-05-04 19:43 47.53213 19.08559 2912 ft 192 kts 137°
2026-05-04 19:44 47.52321 19.10000 2578 ft 190 kts 137°
2026-05-04 19:44 47.51430 19.11448 2332 ft 184 kts 137°
2026-05-04 19:44 47.50603 19.12791 2143 ft 170 kts 137°
2026-05-04 19:44 47.49844 19.14054 1880 ft 158 kts 137°
2026-05-04 19:45 47.49138 19.15195 1655 ft 146 kts 138°
2026-05-04 19:45 47.48439 19.16282 1464 ft 145 kts 137°
2026-05-04 19:45 47.47767 19.17382 1338 ft 144 kts 135°
2026-05-04 19:45 47.47088 19.18504 1171 ft 148 kts 134°
2026-05-04 19:46 47.46387 19.19616 969 ft 147 kts 132°
2026-05-04 19:46 47.45712 19.20721 775 ft 144 kts 133°
2026-05-04 19:46 47.45052 19.21785 613 ft 142 kts 134°
2026-05-04 19:46 47.44387 19.22856 490 ft 134 kts 132°
2026-05-04 19:47 47.43823 19.23771 488 ft 104 kts 133°
2026-05-04 19:47 47.43431 19.24403 476 ft 73 kts 133°
2026-05-04 19:47 47.43176 19.24813 488 ft 43 kts 132°
2026-05-04 19:47 47.43133 19.25103 484 ft 11 kts 45°
2026-05-04 19:48 47.43138 19.25110 486 ft 0 kts 44°